Lapse_Rate
5.8 8.7 10.1 9.2 6.5 6.5 6.5 6.5 6.5 6.5 6.5 7.7 7.8 6.9 6.7 7.4 6.6 6.5 9.8 10.0 10.0 9.8 9.2 8.5 6.5 6.4 6.5 6.4 6.3 6.5 6.8 6.6 6.7 6.8 6.9 7.0 6.7 6.6 6.7 7.0 6.8 6.6 6.7 6.7 6.5 6.4 6.4 6.5 6.5
9.7 9.9 9.6 8.0 6.5 6.5 6.5 6.5 6.5 6.5 7.2 7.9 7.8 7.5 7.1 6.5 8.6 8.8 9.2 9.9 9.9 9.9 9.5 9.4 6.3 6.5 6.5 6.5 6.5 6.3 6.8 6.7 6.8 6.8 6.7 6.9 6.8 6.7 6.8 6.8 6.8 6.8 6.9 6.6 6.5 6.5 6.2 6.2 6.5
9.2 9.8 7.9 6.5 6.5 6.5 6.5 6.5 6.5 7.0 7.7 7.3 7.3 8.0 7.7 7.4 8.7 9.1 9.9 10.0 10.0 8.2 9.3 7.1 6.4 6.6 6.5 6.7 6.4 6.5 6.7 6.6 6.6 6.6 6.6 6.6 6.9 6.8 7.0 7.0 6.6 6.8 6.9 6.8 6.8 7.0 6.9 6.5 6.8
9.2 8.4 8.1 6.5 6.5 6.5 6.5 6.5 6.8 6.8 7.4 7.9 7.7 6.5 8.5 9.1 9.0 9.7 10.0 10.0 9.8 8.5 9.5 6.4 6.6 6.7 6.6 6.5 6.6 6.6 6.8 6.6 6.6 6.6 6.7 6.7 6.9 7.1 7.1 6.9 7.0 6.8 6.8 6.7 6.6 6.7 6.7 6.4 6.4
9.2 5.7 6.5 6.5 6.5 6.5 6.5 7.0 7.2 6.5 6.9 7.3 7.1 6.8 7.6 9.0 9.7 10.0 9.9 9.9 9.7 9.3 9.6 9.1 6.6 6.5 6.5 6.2 6.7 6.7 6.7 6.7 6.7 7.0 7.2 7.2 6.9 6.9 7.0 6.9 7.0 6.8 6.4 7.0 6.6 6.5 6.5 6.6 6.2
7.5 7.6 6.5 6.5 6.5 6.5 6.6 7.3 7.1 6.7 7.2 7.5 7.4 7.3 7.8 9.5 9.5 9.8 10.0 10.0 9.9 9.7 9.7 9.4 6.4 6.8 6.3 6.7 6.7 6.9 6.8 6.6 7.1 7.0 6.8 6.7 6.7 6.7 6.9 6.9 7.2 7.0 7.1 7.0 6.8 6.4 6.3 6.3 6.0
6.8 6.5 6.5 6.5 6.5 6.5 6.5 7.5 6.8 6.7 6.9 7.1 8.1 6.5 8.1 9.0 9.6 9.9 9.9 10.1 10.1 9.9 10.0 9.6 9.3 7.0 6.9 6.7 6.7 6.7 6.7 6.7 6.7 6.7 6.6 6.6 6.7 6.5 6.9 6.9 7.1 7.1 7.1 7.1 6.9 6.5 6.2 5.8 5.4
7.6 6.5 6.5 6.5 6.5 6.5 6.8 7.1 7.6 7.0 6.9 8.5 8.5 6.7 7.1 8.8 9.7 10.0 10.0 10.0 10.0 10.0 10.0 9.9 9.6 9.5 9.5 8.8 6.8 6.7 6.5 6.7 6.7 6.6 6.7 6.6 6.6 6.7 6.9 6.5 6.9 7.1 7.0 6.9 6.7 6.5 6.0 5.4 5.1
8.4 6.5 6.5 6.5 6.5 6.5 7.2 6.6 7.8 8.3 7.7 8.0 8.3 8.4 8.8 9.5 9.7 9.7 9.5 9.5 9.7 9.8 9.6 9.9 9.4 9.1 8.1 8.2 7.3 6.8 6.8 6.6 6.7 6.9 7.0 6.7 9.5 9.2 8.7 7.1 6.8 6.9 6.8 6.6 6.4 6.1 5.8 5.2 4.7
6.5 6.5 6.5 6.6 6.6 6.5 6.9 6.7 7.2 6.8 7.0 7.4 7.8 8.8 9.2 9.4 9.3 8.9 9.0 9.1 9.3 8.7 9.8 9.6 9.5 9.7 9.6 9.6 9.4 8.4 9.0 9.1 9.4 9.5 9.5 9.4 9.0 8.8 9.3 7.2 6.5 6.6 6.3 6.2 6.1 5.8 5.7 5.7 8.1
6.8 6.5 6.5 6.8 7.0 7.3 6.9 6.9 7.5 6.3 6.5 7.3 7.4 8.2 8.9 9.0 8.8 8.7 9.0 9.3 9.4 9.5 9.2 9.6 9.8 9.3 9.5 9.4 9.6 9.5 9.2 9.5 8.9 9.5 9.6 9.6 9.3 9.3 9.6 8.0 8.0 8.2 6.2 8.5 6.8 7.2 8.0 9.7 9.6
6.5 7.0 7.0 7.1 7.5 7.2 6.7 7.3 6.9 7.1 7.2 8.2 8.5 8.8 8.9 8.8 8.7 8.6 8.8 9.2 8.9 9.1 9.6 9.5 9.7 6.7 8.1 8.1 9.4 9.3 8.9 9.6 9.6 9.5 9.6 9.5 9.7 9.1 9.6 9.7 9.6 9.4 9.6 9.3 9.5 9.6 9.7 9.7 9.6
6.5 6.7 7.3 7.4 7.4 7.2 7.5 7.0 6.8 7.1 8.0 8.5 8.7 8.7 8.7 8.5 8.5 8.8 9.0 9.2 8.9 8.9 8.9 9.2 9.7 6.8 8.5 9.5 9.6 8.1 9.6 9.8 9.5 9.5 9.6 9.0 8.2 8.7 9.3 9.6 9.3 9.4 9.7 9.7 9.7 9.7 9.7 9.7 9.8
7.1 7.1 7.1 7.3 7.3 7.5 6.8 6.9 7.1 7.4 7.9 8.2 8.4 8.4 8.4 8.2 8.4 8.8 8.9 8.7 8.6 8.5 8.4 9.6 9.7 8.7 9.5 9.7 9.1 9.6 9.7 9.6 9.6 9.6 9.6 9.3 9.1 8.9 9.6 9.7 9.6 9.7 9.6 9.7 9.7 9.5 9.8 9.9 9.8
7.4 6.5 6.5 6.7 7.0 6.7 7.4 6.5 6.5 6.3 7.8 7.8 7.8 8.0 8.1 7.9 8.6 8.6 8.9 8.6 9.0 9.0 9.2 9.6 9.7 9.7 7.7 9.6 9.6 9.6 9.7 9.7 9.8 9.6 9.5 9.5 9.4 9.0 9.5 9.7 5.3 9.7 9.3 9.3 9.5 9.6 9.6 9.9 9.9
6.5 6.5 6.5 6.5 6.8 7.1 7.0 6.5 6.6 5.6 7.1 7.2 7.6 7.7 7.8 8.2 8.6 8.8 9.1 9.1 8.6 9.2 9.4 9.6 9.7 9.6 9.5 9.7 9.7 9.7 9.7 9.7 9.7 9.6 9.5 9.5 9.5 9.6 8.9 9.5 9.5 9.6 9.7 9.7 9.8 9.8 9.7 9.7 9.7
6.5 6.5 6.5 6.5 6.8 6.5 6.5 6.5 6.8 5.7 7.4 7.2 6.8 7.5 7.9 8.0 8.2 8.5 9.2 9.3 9.5 9.5 8.8 8.9 8.6 9.5 9.6 9.6 9.7 9.7 9.6 9.7 9.7 9.7 9.6 9.6 9.5 9.1 8.6 9.2 9.1 9.0 9.7 9.8 9.1 9.7 9.6 9.5 9.6
6.5 6.5 6.5 6.5 6.5 6.5 6.5 6.5 6.6 7.3 7.2 7.1 7.2 7.6 7.7 8.1 8.2 8.8 9.1 9.3 9.4 9.5 8.4 8.0 9.1 8.7 9.1 9.8 9.7 9.9 9.9 9.8 9.7 9.7 9.5 9.0 9.5 9.4 9.0 9.6 9.5 8.5 8.5 9.7 8.7 9.4 9.7 9.6 9.5
6.5 6.5 6.5 6.5 6.5 6.5 6.5 6.5 6.5 7.1 7.1 6.9 7.1 7.5 7.6 7.8 8.2 8.1 9.0 9.4 9.3 9.4 8.4 9.1 9.0 9.2 9.1 9.6 9.5 9.5 9.5 9.7 9.8 9.7 9.1 9.2 9.0 9.5 8.3 8.9 9.1 5.3 6.9 9.1 9.5 9.4 8.9 9.4 9.3
6.5 6.5 6.5 6.5 6.5 6.5 6.5 6.5 6.5 6.9 7.1 7.1 7.1 7.3 7.5 7.9 7.7 8.7 7.8 9.3 9.4 9.2 8.2 8.1 9.1 8.2 9.5 9.7 9.6 9.7 9.6 9.7 9.0 8.5 9.5 9.6 9.6 9.4 9.6 8.7 9.0 7.2 8.0 9.4 9.5 9.1 9.0 9.4 9.6
6.5 6.5 6.5 6.5 6.5 6.5 6.5 6.5 6.5 6.6 7.1 7.3 7.1 8.0 7.5 7.3 5.3 8.3 7.5 9.1 9.3 9.1 9.0 9.2 9.1 8.9 9.0 9.6 9.7 9.6 9.7 8.8 7.8 8.2 9.8 9.6 9.6 9.6 9.3 9.2 8.7 8.4 8.1 9.0 9.4 8.7 8.8 7.3 9.3
6.5 6.5 6.5 6.5 6.5 6.5 6.5 6.5 6.5 6.5 6.5 6.8 7.1 7.8 8.1 7.7 7.3 7.9 8.3 8.5 9.2 9.2 9.4 9.3 9.1 9.1 8.8 9.4 7.6 8.7 9.1 9.0 9.4 9.5 9.5 9.6 9.6 9.6 9.6 9.6 9.0 7.9 8.9 5.8 8.7 9.6 8.7 8.1 7.8
6.5 6.5 6.5 6.5 6.5 6.5 6.5 6.5 6.5 6.5 6.5 6.5 7.1 7.8 8.2 7.5 8.3 8.6 8.5 8.6 9.1 9.3 9.5 9.4 9.2 8.6 9.3 9.3 7.7 9.2 8.6 9.4 9.5 9.6 8.4 8.7 9.4 9.5 9.5 9.6 9.0 8.1 8.3 8.8 8.9 9.2 8.7 8.9 8.9
6.5 6.5 6.5 6.5 6.5 6.5 6.5 6.5 6.5 6.5 6.5 6.5 7.0 7.6 7.8 8.0 8.2 8.4 8.6 8.6 8.6 9.4 9.4 9.4 9.1 8.6 9.0 9.3 9.2 8.5 9.1 7.1 9.2 9.2 9.3 9.5 9.7 9.8 9.5 9.5 9.5 8.9 9.2 8.6 9.3 9.3 8.6 8.2 8.5
6.5 6.5 6.5 6.5 6.5 6.5 6.5 6.5 6.5 6.5 6.5 6.5 6.5 7.3 7.6 7.7 8.1 8.5 8.3 8.5 8.6 8.9 9.1 9.3 9.1 8.9 9.2 9.2 9.3 9.1 8.5 8.5 9.0 9.2 9.3 8.1 9.5 9.6 8.9 9.1 9.5 9.4 8.2 9.3 9.4 9.1 9.3 8.5 8.8
6.5 6.5 6.5 6.5 6.5 6.5 6.5 6.5 6.5 6.5 6.9 7.2 7.7 7.6 7.8 7.1 7.7 8.3 8.5 8.6 8.2 8.8 9.0 9.2 9.0 8.9 9.1 9.2 9.1 8.9 9.2 9.4 9.3 8.7 7.0 9.1 7.6 9.4 7.9 8.6 9.6 9.6 9.5 9.5 9.6 9.6 9.6 9.5 9.0
6.5 6.5 6.5 6.5 6.5 6.5 6.5 6.5 6.5 6.5 6.5 6.9 7.1 7.5 7.5 8.0 7.9 6.5 8.7 8.8 8.8 8.6 9.0 9.1 9.0 9.0 9.2 9.3 9.2 8.6 8.4 9.3 9.3 8.7 8.9 9.6 8.9 7.6 9.1 9.7 9.6 9.6 9.6 9.5 9.6 9.6 9.5 9.1 9.3
6.5 6.5 6.5 6.5 6.5 6.5 6.5 6.5 6.5 6.5 6.5 6.5 6.6 7.1 7.6 7.9 7.9 6.4 8.6 8.8 8.9 8.9 9.3 9.3 9.2 9.1 9.3 9.4 9.4 9.4 9.2 9.0 9.4 9.2 8.6 9.2 9.5 9.4 8.0 7.9 9.4 9.6 9.5 9.6 9.3 9.5 9.2 9.3 9.6
6.5 6.5 6.5 6.5 6.5 6.5 6.5 6.5 6.5 6.5 6.5 6.5 6.7 7.3 7.6 7.9 7.9 7.9 6.9 8.2 8.9 9.1 8.8 9.2 9.2 9.1 9.2 9.4 9.4 9.4 9.4 9.4 9.2 9.4 9.4 9.3 9.5 9.5 9.5 9.5 9.4 9.5 9.4 9.5 8.6 9.2 8.1 8.2 9.2
6.5 6.5 6.5 6.5 6.5 6.5 6.5 6.5 6.5 6.5 6.6 7.0 7.1 7.4 7.8 7.9 5.7 6.2 2.0 7.0 6.9 7.2 7.8 8.9 9.2 9.2 9.3 9.3 9.3 9.4 9.4 9.4 9.4 9.3 9.4 8.5 7.9 8.9 9.4 9.5 9.3 9.4 9.4 9.5 9.1 9.1 9.3 8.7 9.2
Wind_Speed
10 14 6 6 5 6 11 14 15 14 10 15 4 14 16 17 10 13 15 18 17 19 19 16 15 16 16 16 15 15 15 13 16 15 15 15 15 13 14 13 16 15 17 18 16 15 15 15 14
13 3 7 6 4 10 9 13 13 11 15 10 10 7 19 18 20 19 16 15 17 18 22 19 15 17 17 16 16 16 16 15 15 16 15 14 14 14 13 15 15 15 15 16 17 18 18 17 16
10 5 8 1 5 6 10 14 11 14 12 7 6 15 10 16 13 17 18 14 16 20 22 18 16 15 16 17 17 16 15 15 15 15 15 14 13 15 14 16 15 15 16 16 15 17 16 16 15
4 3 4 4 5 11 14 15 14 14 10 10 12 13 18 13 14 19 16 15 15 18 23 17 14 15 16 17 16 15 15 15 15 14 14 15 15 15 15 16 16 15 16 15 15 16 17 15 14
4 3 2 7 12 10 13 15 13 10 9 7 4 20 15 12 21 17 14 14 21 14 21 19 15 15 16 16 16 16 16 15 14 14 14 15 15 15 15 15 15 15 14 14 15 15 15 14 13
6 4 3 6 12 8 12 13 10 7 10 7 18 17 14 17 17 16 13 14 18 15 22 19 15 16 15 15 16 17 16 15 14 14 14 14 14 14 15 14 15 15 15 15 16 15 14 12 12
9 6 6 2 11 12 8 8 8 2 6 12 14 16 14 17 16 14 12 11 14 16 17 19 19 16 14 14 15 15 15 14 14 14 14 14 13 13 13 13 13 14 14 14 12 11 12 11 10
2 3 7 5 7 7 3 7 5 9 9 11 11 13 18 19 16 13 12 11 11 9 15 11 19 19 17 15 14 16 15 15 14 13 14 15 13 13 13 15 11 11 12 11 10 9 9 10 9
3 5 2 6 4 3 6 10 6 3 8 5 2 21 20 19 16 14 12 12 11 10 12 9 16 20 15 14 17 16 15 16 15 11 10 14 14 14 13 14 9 8 9 8 7 5 8 10 11
4 2 12 8 8 1 3 6 5 6 7 9 13 21 21 18 16 14 13 12 10 10 12 6 12 14 15 15 14 15 13 12 9 8 7 7 15 12 14 10 7 6 6 7 7 9 9 14 12
5 1 6 9 12 10 0 9 3 9 10 11 13 17 20 18 14 15 12 12 12 13 8 13 9 12 11 10 14 11 11 12 11 9 6 11 12 14 12 11 11 9 10 9 11 9 9 3 2
4 7 6 6 10 6 7 5 2 11 9 10 16 19 17 17 14 11 12 11 11 10 13 15 8 7 14 7 7 13 10 14 11 11 7 6 8 2 4 7 10 5 8 3 7 10 3 4 4
6 9 8 6 10 3 2 12 4 8 4 10 17 17 17 13 11 10 10 11 15 9 12 13 12 5 8 12 10 11 8 10 15 12 9 5 10 2 5 4 3 3 6 6 3 4 4 6 6
10 10 10 7 8 10 8 7 3 5 4 14 17 16 14 13 13 11 12 9 9 9 7 16 14 15 9 3 4 6 7 12 13 13 6 5 5 1 10 7 9 3 2 3 5 6 2 6 8
7 8 9 6 11 10 12 5 3 8 12 13 14 14 14 10 10 9 12 13 9 11 12 12 15 16 8 10 9 8 11 11 9 14 9 3 2 2 4 2 8 6 6 2 5 6 2 5 8
8 10 9 8 7 8 11 8 8 7 11 6 11 12 9 18 9 9 11 13 11 10 10 11 10 15 15 10 9 8 9 9 9 12 11 6 3 4 8 5 1 5 6 6 3 5 4 5 6
13 3 11 8 6 7 12 4 22 14 11 8 4 11 15 11 11 6 14 16 13 13 9 8 5 12 12 10 9 8 8 7 8 10 12 5 7 5 11 0 7 7 5 1 4 3 3 3 5
13 17 13 11 8 8 9 3 20 16 11 11 10 8 13 17 18 11 12 17 10 14 10 6 8 9 8 8 7 7 8 6 9 9 10 8 7 4 7 5 3 9 5 6 6 1 0 4 4
4 3 12 5 7 5 7 9 18 17 14 14 12 16 9 19 21 12 10 13 15 15 10 10 8 7 9 9 9 8 9 7 7 7 8 7 8 3 7 5 7 10 5 8 3 3 3 2 1
7 7 5 7 6 6 7 5 13 20 21 18 15 13 15 14 15 21 9 14 16 16 15 13 12 11 10 9 8 8 7 8 6 7 10 9 7 5 7 6 3 5 1 3 2 3 3 2 3
11 1 5 8 10 9 7 10 13 15 17 18 16 15 19 18 19 18 14 15 14 15 15 14 13 13 11 10 7 7 6 4 3 5 7 8 8 8 4 4 6 6 3 6 4 1 5 5 3
14 6 8 2 9 2 14 4 13 17 15 17 16 22 20 17 11 14 20 13 15 15 14 16 15 13 10 10 6 7 7 7 6 5 6 10 10 9 8 5 3 4 7 6 5 4 7 5 3
12 9 11 6 9 15 14 7 7 18 15 18 22 26 24 15 23 16 21 16 14 16 14 15 13 12 12 11 5 10 9 7 8 8 8 5 8 8 8 6 4 3 6 3 3 3 4 6 6
12 4 7 9 13 12 14 12 2 8 15 17 24 25 24 20 20 18 18 18 12 16 15 15 15 13 12 12 9 9 8 6 7 6 7 8 9 8 9 7 5 5 5 3 4 1 2 4 5
11 13 11 12 10 3 10 8 7 14 8 18 26 25 20 21 17 18 16 18 15 15 15 15 16 14 14 14 12 11 10 7 3 5 8 7 8 8 10 8 6 5 7 6 6 3 2 3 3
14 18 12 1 10 4 15 5 2 7 2 5 24 25 22 20 14 16 18 18 17 17 16 15 17 15 15 14 12 10 11 5 6 9 3 6 3 4 13 10 9 9 7 7 7 6 6 6 5
12 14 21 1 16 6 4 5 11 8 7 5 10 16 20 19 16 11 22 18 18 15 16 15 16 15 16 16 13 10 9 11 10 6 8 5 4 2 6 8 8 9 10 8 6 7 6 5 5
16 9 11 6 9 7 10 12 3 6 9 6 3 12 18 20 20 11 19 19 16 15 16 16 15 16 15 16 14 12 13 13 10 5 8 6 4 7 2 6 5 7 8 9 7 8 8 6 6
7 13 14 4 3 6 2 1 6 5 9 8 5 5 8 13 18 17 8 16 17 17 14 16 15 15 15 15 13 13 13 13 10 8 8 9 8 6 7 7 8 9 10 9 5 8 7 7 7
8 14 13 7 8 7 3 4 18 7 10 10 8 4 10 11 3 2 8 8 11 10 13 15 15 15 14 14 12 13 12 12 13 13 12 8 10 10 10 9 9 9 9 9 10 11 10 8 7
Wind_Direction
224 223 257 250 253 211 94 100 97 110 84 81 59 61 63 31 57 95 133 109 133 108 126 121 120 116 115 117 113 111 107 98 98 99 95 93 90 90 88 95 90 88 89 88 92 99 96 97 102
243 284 232 273 249 116 105 112 109 91 95 97 111 119 66 69 91 111 115 134 128 126 125 112 116 113 113 113 114 111 107 101 99 93 91 91 89 93 93 91 90 90 88 91 91 96 98 99 100
248 288 268 108 257 104 124 120 114 108 99 92 83 37 43 109 116 114 121 136 112 101 102 107 113 115 114 116 114 112 110 103 98 96 96 94 95 91 91 90 87 84 91 89 99 96 99 101 99
246 271 250 350 120 81 116 119 114 129 128 87 122 86 100 83 105 117 133 124 120 82 100 113 115 114 116 118 112 111 107 107 104 102 103 102 94 96 93 91 89 87 88 92 98 91 95 93 94
218 207 274 261 105 102 103 115 129 124 126 88 47 111 104 95 108 124 143 130 120 139 122 111 116 120 121 116 114 113 111 108 107 100 99 100 97 95 98 92 91 89 84 96 94 87 94 97 98
245 240 323 122 102 103 111 109 116 109 87 118 97 120 105 122 133 136 146 136 114 111 114 117 113 125 125 121 115 114 110 107 102 101 101 95 99 98 98 98 92 90 85 99 93 94 94 99 100
264 21 278 298 125 103 88 118 100 104 166 120 134 117 130 145 132 136 147 125 120 120 117 131 129 123 126 118 114 116 112 111 105 105 104 104 101 105 102 97 94 92 93 96 97 97 100 99 99
252 128 301 134 90 89 78 106 116 139 59 87 148 133 154 131 142 145 125 132 117 119 98 111 138 136 126 123 116 121 118 114 114 119 129 124 117 122 123 118 97 96 93 95 94 103 125 116 113
236 101 279 312 115 199 148 128 75 67 140 133 69 137 132 142 145 150 153 126 146 121 103 153 124 101 109 126 119 116 115 119 126 134 150 175 128 134 137 83 107 102 100 106 113 138 149 146 153
113 217 182 183 142 277 100 89 118 144 119 135 85 106 130 149 164 149 161 144 144 131 139 96 111 137 140 126 133 122 134 122 119 123 134 154 67 68 100 109 116 121 143 154 172 218 200 199 166
300 179 106 152 132 208 70 113 146 175 160 140 140 137 150 162 167 168 152 158 156 130 160 123 119 133 112 138 143 129 131 117 140 142 141 114 140 154 133 140 154 152 188 191 192 209 232 332 106
104 55 75 129 150 183 199 176 69 60 39 98 128 147 156 170 174 157 153 157 122 142 149 124 141 91 134 175 177 133 186 133 145 104 132 167 131 23 140 101 78 191 140 149 250 87 77 123 289
134 114 100 147 145 160 143 55 48 53 119 145 136 154 165 165 148 159 151 152 125 172 129 135 142 107 175 169 157 177 172 150 104 165 162 74 99 113 78 138 97 44 180 117 133 101 80 151 143
113 113 125 124 118 156 106 36 31 46 334 131 146 157 166 156 165 145 144 127 140 153 151 135 146 146 170 189 100 127 146 108 172 132 147 151 219 322 138 178 166 157 109 76 102 11 156 113 112
121 140 140 137 139 143 133 60 89 304 322 154 165 149 157 138 147 153 140 145 164 149 153 138 143 146 170 150 151 198 130 178 140 117 158 112 192 227 133 153 350 136 84 176 178 223 198 100 109
224 195 176 155 181 146 205 177 202 257 291 222 163 165 156 141 160 163 151 121 179 166 145 166 164 152 163 152 174 180 171 158 162 143 155 168 108 173 246 185 199 118 219 209 150 227 136 131 149
193 196 327 134 180 172 205 155 191 193 244 268 277 216 158 151 147 230 151 164 161 136 138 173 162 158 154 145 174 172 139 185 160 161 155 158 162 198 281 227 94 237 224 131 184 200 174 150 153
334 166 197 142 170 217 216 199 164 183 208 248 253 256 195 176 147 191 169 134 156 148 141 128 160 136 150 160 166 177 168 186 165 181 120 152 149 194 271 104 173 253 279 154 32 73 169 206 211
215 255 95 280 130 209 233 188 170 177 193 196 245 261 222 220 150 159 197 156 152 145 153 151 151 171 168 174 182 171 172 174 177 172 112 173 126 124 255 212 229 94 287 61 154 162 216 182 36
238 250 170 108 158 235 248 255 168 185 198 192 221 246 272 237 156 162 224 170 161 157 168 148 165 179 180 183 194 181 175 170 178 137 159 178 185 177 211 333 238 48 261 115 187 316 262 166 180
243 269 5 104 234 225 260 244 186 186 198 186 211 234 255 265 155 165 184 181 168 160 156 160 177 175 210 162 169 186 179 145 156 145 174 187 197 199 255 214 318 322 286 161 151 231 312 296 145
255 338 172 35 271 134 247 314 200 186 193 191 201 225 236 238 182 214 166 212 176 163 175 162 179 178 195 184 145 172 200 190 196 186 194 155 196 215 188 211 223 256 312 194 107 71 331 342 283
107 225 249 257 277 275 248 240 134 170 204 189 200 209 224 242 228 190 160 188 179 160 175 170 180 171 187 208 249 172 208 194 176 199 126 263 178 206 207 194 206 224 265 53 357 11 347 309 324
262 215 245 241 249 260 258 226 139 210 201 191 194 204 210 238 196 184 172 162 201 163 174 170 167 183 190 199 194 229 229 279 189 193 161 207 177 192 213 197 213 224 247 243 248 173 251 340 351
233 235 235 223 211 255 26 293 102 210 157 178 188 210 199 224 205 192 173 156 171 177 179 167 173 183 190 196 195 196 235 237 115 179 212 243 202 185 167 203 210 213 213 265 254 200 276 235 296
214 243 253 4 277 27 322 218 174 89 90 210 178 192 209 195 227 188 190 164 166 200 182 179 170 188 191 192 202 196 208 214 226 200 280 230 305 211 140 181 222 224 214 222 230 244 240 204 227
203 228 262 94 247 241 308 103 182 63 81 133 191 180 195 200 211 276 182 184 175 179 178 194 171 190 195 193 198 187 204 219 213 263 203 225 271 2 153 187 212 223 222 217 235 241 234 258 220
267 309 237 203 236 267 192 275 109 30 51 85 168 178 177 194 212 192 219 180 187 175 181 198 181 188 197 200 199 201 198 215 233 199 233 268 250 253 137 282 228 227 234 231 211 255 216 234 255
218 235 254 284 118 261 5 310 13 70 51 39 127 187 152 221 202 197 245 175 188 183 177 189 190 186 198 200 198 206 203 202 203 222 226 220 237 243 244 234 233 218 244 228 255 258 294 213 247
254 278 346 352 318 58 50 245 317 57 54 45 79 91 114 149 180 298 347 195 178 180 174 186 187 192 196 200 200 203 215 214 204 201 210 201 220 235 235 227 223 236 227 230 218 237 252 229 251